THOR ABLESTAR DEB, 13512

Orbit data source: Space-Track

THOR ABLESTAR DEB, 13512 is space debris in LEO originally from a launch on Thu, 29 Jun 1961 UTC launched from the Air Force Eastern Test Range (AFETR). Debris objects in space refer to the collection of defunct objects orbiting the Earth. Examples of debris include non-operational satellites, rocket bodies, and fragments generated from explosions, collisions, or faulty payload assembly.

Loading next visibility...
Identifier
13512, 1961-015KV
Orbit
LEO
Country
Flag of USUS
Related business
Manufacturer
Unknown
Mission
Spacecraft
Bus & Motor
Unknown
Mass
Unknown
Launch date (UTC)
1961-06-29 (64 years ago)
Launch vehicle
Unknown
Launch site
Air Force Eastern Test Range (AFETR)
Object type
Payload
Rocket body
Debris
Shape & HBR
Unknown shape, 0.1 m
Radar Cross Section
Small (<0.1 m²)

Expand to show TLE details & history
Last TLE update: 23 hours ago

TLE from 23 hours ago
0 THOR ABLESTAR DEB
1 13512U 61015KV  25299.40140213  .00015655  00000-0  42855-2 0  9995
2 13512  65.4695 292.9657 0020330  12.2600 135.4645 14.47171802308765
Epoch: 2025-10-26T09:38Z
TLE epoch observation values (Epoch: 2025-10-26T09:38:01.144Z)
Latitude
28.98539°
Longitude
-81.12151°
Altitude
747.914 km
Speed
7.478 km/s
True Right ascension
06h 33m 36s
True Declination
28° 50' 23"
Sunlit
Object was in daylight at epoch
Visualization orbit readout
Latitude
Unknown
Longitude
Unknown
Altitude
Unknown
Speed
Unknown
Apparent Right ascension
Unknown
Apparent Declination
Unknown
Sunlit
N/A
Visualization observer readout
Local Sidereal Time
03:54:59
Azimuth
Unknown
Elevation
Unknown
Doppler factor
Unknown
Orbital elements
Apogee altitude
747.868 km
Perigee altitude
718.953 km
Semi-major axis
7,111.547 km
Eccentricity
0.00203
Inclination
65.4695°
RAAN
292.9657°
Arg. of periapsis
12.26°
True anomaly
135.62759°
Mean anomaly
135.4645°
Eccentric anomaly
135.54608°
Mean motion
3.61907 °/min
Orbital period
99.47 mins
BSTAR
0.0042855
Loading maneuver chart data...
Computing Atmospheric mass density...

Documentation

Showing up to 5 results
|